Regional Weather Roundup
Issued by NWS Sterling, VA

Home | Current Version | Previous Version | Text Only | Print | Product List | Glossary On
Versions: 1 2 3 4 5 6 7 8 9 10 11 12 13 14 15 16 17 18 19 20 21 22 23 24 25 26 27 28 29 30 31 32 33 34 35 36 37 38 39 40 41 42 43 44 45 46 47 48 49 50
000
ASUS41 KLWX 181810
RWRLWX

REGIONAL WEATHER ROUNDUP
NATIONAL WEATHER SERVICE BALTIMORE MD/WASHINGTON DC
200 PM EDT THU SEP 18 2014

Note: "FAIR" indicates few or no clouds below 12,000 feet
with no significant weather and/or obstructions to visibility.
 TC=TEMPERATURE CELSIUS

 * =Non NWS site. Station does not report precipitation (e.g. rain,
    snow, etc.), thunder, or fog.

DCZ001-MDZ009-015-VAZ040>042-051-053>054-181900-
WASHINGTON METRO

CITY           SKY/WX    TMP DP  RH WIND       PRES   REMARKS
WASHINGTON NAT MOSUNNY   77  59  53 VRB3      30.00F
DULLES         PTSUNNY   75  53  46 NW7       30.01F
QUANTICO       PTSUNNY   74  61  63 S6        30.02S
COLLEGE PARK*  PTSUNNY   77  59  53 NW6       29.99F
LEESBURG*      MOSUNNY   75  55  50 N7        30.03S
GAITHERSBURG*  MOSUNNY   73  57  56 N3        30.05S

$$

MDZ006>007-011-014-181900-
BALTIMORE METRO

CITY           SKY/WX    TMP DP  RH WIND       PRES   REMARKS
BWI AIRPORT    PTSUNNY   70  63  78 E9        30.00F
MD SCIENCE CTR   N/A     71  61  70 MISG      30.01F
MARTIN STATE   PTSUNNY   70  63  78 SE7       30.02S
ANNAPOLIS      PTSUNNY   73  56  54 S6        29.99F
FORT MEADE*    CLOUDY    72  59  64 CALM      30.02F

$$

MDZ012-015-019>023-181900-
MARYLAND EASTERN SHORE

CITY           SKY/WX    TMP DP  RH WIND       PRES   REMARKS
OCEAN CITY     SUNNY     74  55  51 SE8       30.01F
SALISBURY      MOSUNNY   79  50  36 W5        30.00F
BAY BRIDGE AP*   N/A     73  54  49 S6        30.00F
CAMBRIDGE*     MOSUNNY   77  54  44 SW5       30.00F
EASTON*        PTSUNNY   75  55  50 NW3       30.04F

$$

MDZ017>025-181900-
SOUTHERN MARYLAND

CITY           SKY/WX    TMP DP  RH WIND       PRES   REMARKS
PATUXENT RIVER PTSUNNY   72  57  59 SE7       30.01F
ST INIGOES     PTSUNNY   75  54  47 VRB5      30.00F
LEONARDTOWN*   PTSUNNY   72  57  60 E3        30.02F

$$

MDZ003>005-181900-
NORTH CENTRAL MARYLAND

CITY           SKY/WX    TMP DP  RH WIND       PRES   REMARKS
FREDERICK*     PTSUNNY   73  54  49 NE6       30.05S
HAGERSTOWN APT SUNNY     74  48  39 NW7       30.03S
WESTMINSTER*   SUNNY     72  52  49 N7        30.03S

$$

MDZ501>502-181900-
WESTERN MARYLAND

CITY           SKY/WX    TMP DP  RH WIND       PRES   REMARKS
OAKLAND*       MOSUNNY   63  41  45 NW6       30.11S
CUMBERLAND*    MOSUNNY   77  45  31 SW5       30.07S

$$

VAZ025>031-181900-
SHENANDOAH VALLEY

CITY           SKY/WX    TMP DP  RH WIND       PRES   REMARKS
WINCHESTER*    MOSUNNY   73  46  38 NW5       30.03S
STAUNTON*      CLOUDY    73  52  47 N3        30.05S

$$

WVZ021-048>050-054>055-181900-
EASTERN WEST VIRGINIA PANHANDLE

CITY           SKY/WX    TMP DP  RH WIND       PRES   REMARKS
MARTINSBURG    MOSUNNY   75  46  35 W5        30.03F
PETERSBURG*    MOSUNNY   73  46  38 SE5       30.05S

$$

VAZ036>039-050-181900-
CENTRAL FOOTHILLS

CITY           SKY/WX    TMP DP  RH WIND       PRES   REMARKS
CHARLOTTESVILL PTSUNNY   75  59  57 S8        30.00F
ORANGE*        CLOUDY    75  55  50 N7        30.03S

$$

VAZ055>057-181900-
NORTH AND CENTRAL PIEDMONT

CITY           SKY/WX    TMP DP  RH WIND       PRES   REMARKS
FREDERICKSBRG* CLOUDY    71  62  75 CALM      30.01R
STAFFORD*      NOT AVBL

$$

NCZ024-NYZ072-PAZ021-071-VAZ022-071-181900-
OTHER REGIONAL OBSERVATIONS

CITY           SKY/WX    TMP DP  RH WIND       PRES   REMARKS
NEW YORK CITY  PTSUNNY   73  47  39 CALM      30.01F
PHILADELPHIA   PTSUNNY   73  53  49 SW9       30.00F
PITTSBURGH     MOSUNNY   66  45  46 VRB7      30.10S
ROANOKE        PTSUNNY   77  55  46 NW6       30.04F
RICHMOND       PTSUNNY   75  58  55 SE5       30.01S
RALEIGH        MOSUNNY   78  60  53 N5        30.01S

$$

ANZ530>537-181900-
MARINE OBSERVATIONS

STATION/POSITION TIME  TEMP    WIND        PRES
                       AIR SEA DIR/SP/G
                 (UTC) (F)     (DEG/KT/KT) (MB)
THOMAS PT LIGHT  1800   70 74  200/ 11/ 12 1016.9F
BALT KEY BRIDGE  1800   69     100/  5/  7 1016.0F
COVE POINT       1800   70     180/  6/  8 1016.3F
LEWISETTA        1800   71 74  110/  9/ 10 1015.9R
SOLOMONS ISLAND  1800      76                N/A
PINEY POINT      1800          160/  6/  7   N/A

$$



USA.gov is the U.S. government's official web portal to all federal, state and local government web resources and services.